TimeMDT,TemperatureF,Dew PointF,Humidity,Sea Level PressureIn,VisibilityMPH,Wind Direction,Wind SpeedMPH,Gust SpeedMPH,PrecipitationIn,Events,Conditions,WindDirDegrees,DateUTC
12:51 AM,62.1,30.0,30,29.78,10.0,Variable,3.5,-,N/A,,Clear,0,2013-05-06 06:51:00
1:15 AM,60.8,30.2,31,29.90,10.0,East,19.6,29.9,N/A,,Clear,90,2013-05-06 07:15:00
1:51 AM,61.0,30.9,32,29.77,10.0,East,13.8,32.2,N/A,,Mostly Cloudy,100,2013-05-06 07:51:00
2:39 AM,60.8,32.0,34,29.90,10.0,SSE,17.3,24.2,N/A,,Mostly Cloudy,160,2013-05-06 08:39:00
2:51 AM,61.0,30.9,32,29.78,10.0,SSE,21.9,28.8,N/A,,Mostly Cloudy,150,2013-05-06 08:51:00
3:51 AM,60.1,32.0,35,29.78,10.0,SE,12.7,-,N/A,,Mostly Cloudy,140,2013-05-06 09:51:00
4:51 AM,57.9,32.0,37,29.78,10.0,SSE,10.4,-,N/A,,Overcast,150,2013-05-06 10:51:00
5:51 AM,55.9,33.1,42,29.80,10.0,South,11.5,-,N/A,,Scattered Clouds,190,2013-05-06 11:51:00
6:51 AM,50.0,34.0,54,29.84,10.0,Calm,Calm,-,N/A,,Clear,0,2013-05-06 12:51:00
7:51 AM,54.0,36.0,51,29.84,10.0,NE,5.8,-,N/A,,Clear,50,2013-05-06 13:51:00
8:51 AM,55.0,39.9,57,29.84,10.0,North,4.6,-,N/A,,Clear,350,2013-05-06 14:51:00
9:51 AM,57.0,39.0,51,29.84,10.0,North,6.9,-,N/A,,Clear,10,2013-05-06 15:51:00
10:51 AM,63.0,39.9,43,29.82,10.0,North,5.8,-,N/A,,Clear,360,2013-05-06 16:51:00
11:51 AM,66.0,33.1,29,29.81,10.0,West,5.8,-,N/A,,Clear,280,2013-05-06 17:51:00
12:51 PM,66.0,35.1,32,29.79,10.0,West,4.6,-,N/A,,Clear,270,2013-05-06 18:51:00
1:51 PM,68.0,34.0,28,29.76,10.0,Variable,3.5,-,N/A,,Partly Cloudy,0,2013-05-06 19:51:00
2:51 PM,68.0,32.0,26,29.75,10.0,SSE,3.5,31.1,0.00,Rain,Light Rain,150,2013-05-06 20:51:00
3:51 PM,70.0,34.0,27,29.73,10.0,NNE,5.8,-,0.00,,Scattered Clouds,30,2013-05-06 21:51:00
4:51 PM,71.1,37.0,29,29.71,10.0,NE,12.7,-,N/A,,Partly Cloudy,40,2013-05-06 22:51:00
5:51 PM,69.1,34.0,27,29.73,10.0,South,4.6,-,N/A,,Mostly Cloudy,180,2013-05-06 23:51:00
6:08 PM,68.0,33.8,28,29.85,10.0,South,6.9,-,N/A,Thunderstorm,Overcast,190,2013-05-07 00:08:00
6:23 PM,66.2,33.8,30,29.86,10.0,SSE,20.7,27.6,N/A,,Overcast,150,2013-05-07 00:23:00
6:40 PM,60.8,42.8,52,29.89,10.0,East,23.0,31.1,0.00,Rain,Light Rain,100,2013-05-07 00:40:00
6:51 PM,60.1,41.0,49,29.82,7.0,East,11.5,21.9,0.00,Rain,Light Rain,90,2013-05-07 00:51:00
7:51 PM,60.1,39.9,47,29.81,10.0,SE,12.7,-,0.00,,Overcast,130,2013-05-07 01:51:00
8:51 PM,57.9,42.1,56,29.82,10.0,SSW,6.9,-,0.00,,Mostly Cloudy,210,2013-05-07 02:51:00
9:51 PM,57.0,43.0,59,29.84,10.0,Calm,Calm,-,N/A,,Overcast,0,2013-05-07 03:51:00
10:51 PM,53.1,46.9,80,29.86,10.0,West,4.6,-,0.00,,Overcast,280,2013-05-07 04:51:00
11:51 PM,53.1,46.0,77,29.86,10.0,NE,3.5,-,0.00,Rain,Light Rain,40,2013-05-07 05:51:00